Location: Austin
(30.3000°N, 97.7500°W)
Time: 03:36:59
(UTC-05:00)

Okean-O - Pass Details

Date: 18 March 2023
Orbit: 637 x 638 km, 98.1° (Epoch: 01 April)

Event Time Altitude Azimuth Distance (km) Brightness Sun altitude
Exits shadow 21:05:35 25° 48° (NE) 1,284 3.8 -19.0°
Drops below altitude 10° 21:08:18 10° 14° (NNE) 2,029 5.2 -19.5°
Sets 21:10:45 0° 2° (N) 2,941 6.1 -20.0°
